Regional Weather Roundup
Issued by NWS Kansas City/Pleasant Hill, MO

Home | Current Version | Previous Version | Graphics & Text | Print | Product List | Glossary Off
Versions: 1 2 3 4 5 6 7 8 9 10 11 12 13 14 15 16 17 18 19 20 21 22 23 24 25 26 27 28

000
ASUS43 KEAX 031910
RWREAX

WEATHER ROUNDUP FOR EASTERN KANSAS AND NORTHWEST MISSOURI
NATIONAL WEATHER SERVICE KANSAS CITY/PLEASANT HILL MO
200 PM CDT TUE MAY 03 2016

KSZ040-057-103>105-MOZ028-029-037-043-032000-
...KANSAS CITY METROPOLITAN AREA...

CITY           SKY/WX    TMP DP  RH WIND       PRES   REMARKS
K.C. INTL      PTSUNNY   66  41  40 W8        30.04F
K.C. DOWNTOWN  MOSUNNY   68  40  35 NW7       30.03F
LEES SUMMIT    PTSUNNY   64  39  39 CALM      30.04F
OLATHE - IXD   MOSUNNY   66  40  38 VRB5      30.05F
OLATHE - OJC   MOSUNNY   63  38  39 NW6       30.04F
LAWRENCE       MOSUNNY   68  42  38 W6        30.04F

$$

MOZ001>008-011>017-020>025-030>033-038>040-044>046-053-054-032000-
...NORTHERN AND CENTRAL MISSOURI...

CITY           SKY/WX    TMP DP  RH WIND       PRES   REMARKS
ST. JOSEPH     PTSUNNY   67  41  38 W9        30.03F
MOSBY          PTCLDY    64  36  34 NW3       30.03F
WARRENSBURG    MOSUNNY   64  37  36 W6        30.04F
WHITEMAN AFB   MOSUNNY   65  42  43 N10       30.03F
CLINTON        PTSUNNY   66  43  42 N9        30.05F
SEDALIA        CLOUDY    65  42  43 N8        30.05F
WARSAW         NOT AVBL
CHILLICOTHE      N/A     70  46  42 VRB6      30.02F
KIRKSVILLE     MOSUNNY   67  40  37 W10       30.00F

$$

MOZ041-047>049-056>058-063>065-088>090-097-032000-
...EASTERN AND SOUTHERN MISSOURI...

CITY           SKY/WX    TMP DP  RH WIND       PRES   REMARKS
ST. LOUIS INTL CLOUDY    65  39  38 N8        30.00F
SPIRIT OF STL  CLOUDY    64  43  46 N7        30.00F
COLUMBIA       PTSUNNY   62  45  53 NW9       30.02F
JEFFERSON CITY MOSUNNY   63  43  48 W12       30.02F
ROLLA          PTSUNNY   61  46  57 NW6       30.01F
OSAGE BEACH    PTSUNNY   61  37  41 NW6       30.04F
SPRINGFIELD    MOSUNNY   64  40  41 N15       30.04F
BRANSON        PTSUNNY   63  39  42 N9        30.06F
JOPLIN         SUNNY     65  43  44 N9        30.07F
WEST PLAINS    PTSUNNY   63  41  44 N9        30.03F

$$

IAZ060-094-KSZ022-034>040-054-083-096-NEZ052-066-093-032000-
...KANSAS...SOUTHEAST NEBRASKA AND IOWA...

CITY           SKY/WX    TMP DP  RH WIND       PRES   REMARKS
TOPEKA         SUNNY     67  40  37 CALM      30.03F
MANHATTAN      SUNNY     70  41  34 MISG      30.02F
EMPORIA        SUNNY     68  42  38 S9        30.04F
CHANUTE        MOSUNNY   66  43  43 CALM      30.06F
WICHITA        MOSUNNY   70  46  42 SW15      30.04F
OMAHA          MOSUNNY   69  43  38 NW10      30.00F
LINCOLN        SUNNY     69  38  32 W7        30.03F
FALLS CITY     PTSUNNY   64  43  46 W6        30.02F
LAMONI         MOSUNNY   65  45  48 W14       29.99F
DES MOINES     PTSUNNY   69  37  30 W12G23    29.96F

$$





USA.gov is the U.S. government's official web portal to all federal, state and local government web resources and services.